(205893) = 2002 GO46

Discovered at Haleakala on 2002-04-04 by NEAT.

Orbit

Orbit type: Main Belt

Note: WebGL enabled browser required.

epoch2024-03-31.0
epoch JD2460400.5
perihelion date2020-12-23.02975
perihelion JD2459206.52975
argument of perihelion (°)145.55411
ascending node (°)104.31770
inclination (°)6.19209
eccentricity0.1559821
perihelion distance (AU)2.0054247
Tisserand w.r.t. Jupiter3.5
ΔV w.r.t. Earth (km/sec)9.0
semimajor axis (AU)2.3760452
mean anomaly (°)321.30355
mean daily motion (°/day)0.26910520
aphelion distance (AU)2.747
period (years)3.66
P-vector [x]-0.34092414
P-vector [y]-0.88496650
P-vector [z]-0.31718294
Q-vector [x]0.93426335
Q-vector [y]-0.28143486
Q-vector [z]-0.21896670
absolute magnitude16.5
phase slope0.15
uncertainty0
referenceE2024-GJ9
observations used585
oppositions17
arc length (days)8980
first opposition used1999
last opposition used2024
residual rms (arc-secs)0.74
perturbers coarse indicatorM-v
perturbers precise indicator003Ek
first observation date used1999-09-11.0
last observation date used2024-04-12.0
computer nameMPCLINUX
JD of orbit computation2456966.712482
perihelion JD uncertainty (days)7.5108E-05
argument of perihelion uncertainty (°)6.3398E-05
ascending node uncertainty (°)6.0557E-05
inclination uncertainty (°)4.0069E-06
eccentricity uncertainty 4.2605E-08
perihelion distance uncertainty (AU)9.8909E-08
Minimum Orbit Intersection Distances (in AU)
for orbit epoch: 2460400.5, reference: E2024-GJ9
Mercury1.54288
Venus1.28142
Earth0.99448
Mars0.49334
Jupiter2.28915
Saturn6.31002
Uranus16.0411
Neptune27.1232

Observations

570 total observations over interval: 1999 09 11.18817 – 2024 03 19.517915
These data are available for download (format description).

Date (UT) J2000 RA J2000 Dec Magn Location Ref
1999 09 11.18817 22 12 11.25 -20 06 09.4 18.9   704 – Lincoln Laboratory ETS, New Mexico MPS 123318
1999 09 11.20286 22 12 10.60 -20 06 13.8 19.2   704 – Lincoln Laboratory ETS, New Mexico MPS 123318
1999 09 11.24598 22 12 08.52 -20 06 23.7 19.7   704 – Lincoln Laboratory ETS, New Mexico MPS 123318
2002 04 04.42832 13 35 22.27 +02 31 34.5 20.1   608 – Haleakala-AMOS MPS 55166
2002 04 04.43905 13 35 21.62 +02 31 38.8 19.9   608 – Haleakala-AMOS MPS 55166
2002 04 04.45023 13 35 21.08 +02 31 42.6 20.2   608 – Haleakala-AMOS MPS 55166
2002 04 06.32073 13 33 45.09 +02 43 12.5 18.3   704 – Lincoln Laboratory ETS, New Mexico MPS 55166
2002 04 06.33255 13 33 44.49 +02 43 16.5 18.7   704 – Lincoln Laboratory ETS, New Mexico MPS 55166
2002 04 06.34439 13 33 43.85 +02 43 22.3 18.4   704 – Lincoln Laboratory ETS, New Mexico MPS 55166
2002 04 11.31224 13 29 18.26 +03 12 08.3 19.4   704 – Lincoln Laboratory ETS, New Mexico MPS 57399
2002 04 11.32402 13 29 17.54 +03 12 11.4 19.3   704 – Lincoln Laboratory ETS, New Mexico MPS 57399
2002 04 11.33577 13 29 16.89 +03 12 15.7 19.5   704 – Lincoln Laboratory ETS, New Mexico MPS 57399
2002 04 11.34752 13 29 16.25 +03 12 19.3 19.4   704 – Lincoln Laboratory ETS, New Mexico MPS 57399
2002 04 11.35927 13 29 15.57 +03 12 23.2 19.4   704 – Lincoln Laboratory ETS, New Mexico MPS 57399
2002 04 12.26339 13 28 26.44 +03 17 15.6 18.5   644 – Palomar Mountain/NEAT MPS 57399
2002 04 12.28530 13 28 25.16 +03 17 22.7 18.8   644 – Palomar Mountain/NEAT MPS 57399
2002 04 12.31058 13 28 23.72 +03 17 30.7 18.5   644 – Palomar Mountain/NEAT MPS 57399
2002 04 12.49637 13 28 13.30 +03 18 32.1 20.4   608 – Haleakala-AMOS MPS 57399
2002 04 12.50741 13 28 12.64 +03 18 35.6 20.6   608 – Haleakala-AMOS MPS 57399
2002 04 12.51787 13 28 12.05 +03 18 38.5 20.3   608 – Haleakala-AMOS MPS 57399
2002 04 16.26274 13 24 46.56 +03 37 07.7 18.8   704 – Lincoln Laboratory ETS, New Mexico MPS 57399
2002 04 16.27678 13 24 45.79 +03 37 11.0 19.2   704 – Lincoln Laboratory ETS, New Mexico MPS 57399
2002 04 16.29082 13 24 44.95 +03 37 15.4 19.1   704 – Lincoln Laboratory ETS, New Mexico MPS 57399
2002 04 16.30485 13 24 44.17 +03 37 19.1 19.0   704 – Lincoln Laboratory ETS, New Mexico MPS 57399
2002 04 16.31889 13 24 43.33 +03 37 23.2 18.8   704 – Lincoln Laboratory ETS, New Mexico MPS 57399
2002 04 23.21961 13 18 33.77 +04 03 59.4 19.5   644 – Palomar Mountain/NEAT MPS 57399
2002 04 23.24156 13 18 32.59 +04 04 03.5 18.9   644 – Palomar Mountain/NEAT MPS 57399
2002 04 23.26257 13 18 31.43 +04 04 07.7 18.9   644 – Palomar Mountain/NEAT MPS 57399
2002 05 07.17043 13 08 15.73 +04 22 20.2 19.2   644 – Palomar Mountain/NEAT MPS 57399
2002 05 07.19062 13 08 15.00 +04 22 19.5 19.2   644 – Palomar Mountain/NEAT MPS 57399
2002 05 07.21180 13 08 14.18 +04 22 18.8 19.1   644 – Palomar Mountain/NEAT MPS 57399
2002 05 07.22546 13 08 13.58 +04 22 17.2 19.7   704 – Lincoln Laboratory ETS, New Mexico MPS 57399
2002 05 07.23772 13 08 13.08 +04 22 17.0 19.2   704 – Lincoln Laboratory ETS, New Mexico MPS 57399
2002 05 07.25002 13 08 12.54 +04 22 16.0 19.7   704 – Lincoln Laboratory ETS, New Mexico MPS 57399
2002 05 07.26234 13 08 12.10 +04 22 16.4 19.6   704 – Lincoln Laboratory ETS, New Mexico MPS 57399
2003 09 22.31122 01 24 32.95 -01 53 45.0 19.4   644 – Palomar Mountain/NEAT MPS 123318
2003 09 22.37745 01 24 29.68 -01 54 10.9 19.5   644 – Palomar Mountain/NEAT MPS 123318
2003 09 22.44054 01 24 26.55 -01 54 35.1 19.8   644 – Palomar Mountain/NEAT MPS 123318
2004 12 16.47576 07 53 34.99 +20 58 36.5 20.4 V 691 – Steward Observatory, Kitt Peak-Spacewatch MPS 123318
2004 12 16.50230 07 53 33.88 +20 58 42.8 20.3 V 691 – Steward Observatory, Kitt Peak-Spacewatch MPS 123318
2004 12 16.52856 07 53 32.77 +20 58 48.8 20.8 V 691 – Steward Observatory, Kitt Peak-Spacewatch MPS 123318
2005 01 06.35659 07 34 37.30 +22 32 43.9 19.9   704 – Lincoln Laboratory ETS, New Mexico MPS 123492
2005 01 06.36987 07 34 36.43 +22 32 46.5 19.7   704 – Lincoln Laboratory ETS, New Mexico MPS 123492
2005 01 06.38491 07 34 35.43 +22 32 51.0 19.7   704 – Lincoln Laboratory ETS, New Mexico MPS 123492
2005 01 06.39815 07 34 34.55 +22 32 53.5 20.2   704 – Lincoln Laboratory ETS, New Mexico MPS 123492
2005 01 17.28165 07 22 33.52 +23 22 42.6 19.4   704 – Lincoln Laboratory ETS, New Mexico MPS 124678
2005 01 17.29640 07 22 32.46 +23 22 46.2 20.0   704 – Lincoln Laboratory ETS, New Mexico MPS 124678
2005 01 17.31090 07 22 31.50 +23 22 50.6 20.1   704 – Lincoln Laboratory ETS, New Mexico MPS 124678
2005 01 17.32561 07 22 30.50 +23 22 53.7 19.6   704 – Lincoln Laboratory ETS, New Mexico MPS 124678
2005 01 17.33947 07 22 29.53 +23 22 56.5 20.3   704 – Lincoln Laboratory ETS, New Mexico MPS 124678
2005 01 18.37412 07 21 21.62 +23 27 24.3 20.0 V 291 – LPL/Spacewatch II MPS 124678
2005 01 18.39927 07 21 19.93 +23 27 30.7 19.9 V 291 – LPL/Spacewatch II MPS 124678
2005 01 18.42546 07 21 18.18 +23 27 37.1 20.2 V 291 – LPL/Spacewatch II MPS 124678
2005 03 16.12943 06 57 47.39 +25 27 23.4 20.1 R G96 – Mt. Lemmon Survey MPS 128989
2005 03 16.13481 06 57 47.54 +25 27 23.5 21.1 R G96 – Mt. Lemmon Survey MPS 128989
2005 03 16.14016 06 57 47.67 +25 27 23.5 20.6 R G96 – Mt. Lemmon Survey MPS 128989
2005 03 16.14551 06 57 47.79 +25 27 23.5 20.9 R G96 – Mt. Lemmon Survey MPS 128990
2007 10 12.48978 03 40 09.98 +11 16 10.8 20.0 V G96 – Mt. Lemmon Survey MPS 220285
2007 10 12.49265 03 40 09.87 +11 16 10.3 19.9 V G96 – Mt. Lemmon Survey MPS 220285
2007 10 12.49553 03 40 09.73 +11 16 09.9 19.8 V G96 – Mt. Lemmon Survey MPS 220285
2007 10 12.49839 03 40 09.66 +11 16 09.1 19.9 V G96 – Mt. Lemmon Survey MPS 220285
2007 11 02.57450 03 23 20.20 +10 06 08.7 20.2 R D29 – Purple Mountain Observatory, XuYi Station MPS 224668
2007 11 02.59281 03 23 19.14 +10 06 06.2 19.7 R D29 – Purple Mountain Observatory, XuYi Station MPS 224668
2007 11 02.61262 03 23 17.95 +10 06 01.9 20.1 R D29 – Purple Mountain Observatory, XuYi Station MPS 224668
2007 11 02.62710 03 23 17.08 +10 05 58.8 19.7 R D29 – Purple Mountain Observatory, XuYi Station MPS 224668
2007 11 12.26464 03 13 32.39 +09 36 19.8 19.8   704 – Lincoln Laboratory ETS, New Mexico MPS 226735
2007 11 12.28903 03 13 30.81 +09 36 15.6 20.0   704 – Lincoln Laboratory ETS, New Mexico MPS 226735
2007 11 12.30124 03 13 30.04 +09 36 13.5 20.5   704 – Lincoln Laboratory ETS, New Mexico MPS 226735
2007 11 13.27050 03 12 30.52 +09 33 32.1 19.1 V G96 – Mt. Lemmon Survey MPS 226735
2007 11 13.27800 03 12 30.02 +09 33 31.1 19.2 V G96 – Mt. Lemmon Survey MPS 226735
2007 11 13.28544 03 12 29.59 +09 33 30.1 19.1 V G96 – Mt. Lemmon Survey MPS 226735
2007 11 13.29292 03 12 29.08 +09 33 28.7 19.1 V G96 – Mt. Lemmon Survey MPS 226735
2009 01 24.79764 10 31 03.87 +15 50 42.6 19.4 R D29 – Purple Mountain Observatory, XuYi Station MPS 272304
2009 01 24.81171 10 31 03.35 +15 50 47.9 19.8 R D29 – Purple Mountain Observatory, XuYi Station MPS 272304
2009 01 24.82829 10 31 02.73 +15 50 54.2 19.7 R D29 – Purple Mountain Observatory, XuYi Station MPS 272304
2009 01 24.84241 10 31 02.29 +15 50 59.9 19.9 R D29 – Purple Mountain Observatory, XuYi Station MPS 272304
2009 01 29.35041 10 28 18.62 +16 24 26.5 20.0 V G96 – Mt. Lemmon Survey MPS 272304
2009 01 29.35753 10 28 18.30 +16 24 29.5 20.0 V G96 – Mt. Lemmon Survey MPS 272304
2009 01 29.36456 10 28 18.01 +16 24 32.9 19.9 V G96 – Mt. Lemmon Survey MPS 272304
2009 01 29.37174 10 28 17.68 +16 24 35.9 19.9 V G96 – Mt. Lemmon Survey MPS 272304
2009 02 05.24826 10 23 09.49 +17 19 02.8 19.9 V 703 – Catalina Sky Survey MPS 272304
2009 02 05.25311 10 23 09.24 +17 19 04.0 19.4 V 703 – Catalina Sky Survey MPS 272304
2009 02 05.25793 10 23 09.06 +17 19 06.5 19.0 V 703 – Catalina Sky Survey MPS 272304
2009 02 05.26280 10 23 08.77 +17 19 09.2 20.4 V 703 – Catalina Sky Survey MPS 272304
2009 02 14.37565 10 14 56.97 +18 33 16.6 18.9 V 703 – Catalina Sky Survey MPS 277490
2009 02 14.38159 10 14 56.65 +18 33 18.7 19.4 V 703 – Catalina Sky Survey MPS 277490
2009 02 14.38733 10 14 56.25 +18 33 22.4 19.2 V 703 – Catalina Sky Survey MPS 277490
2009 02 14.39331 10 14 55.86 +18 33 25.6 19.3 V 703 – Catalina Sky Survey MPS 277490
2009 02 16.97120 10 12 25.94 +18 53 53.1 17.8 V J75 – OAM Observatory, La Sagra MPS 279979
